JTC554 CYYT-KOMA

Flight info

Callsign JTC554
Flight time 3h 58m
Altitude 43000
Route MIVAD Q907 SIKBO Q905 HOCKE Q824 FNT J547 OBK J100 DBQ J144 DSM LANTK2
Aircraft C750/M-SBDE3FGHRWXY/S

Departure

Time 2026-04-24 23:02
Airport St. John's International Airport (CYYT)

Arrival

Time 2026-04-25 03:00
Airport Eppley Airfield (KOMA)
Time Latitude Longitude Altitude Speed Heading
2026-04-24 22:49 47.61953 -52.74841 480 ft 0 kts 229°
2026-04-24 22:58 47.61951 -52.74847 474 ft 0 kts 250°
2026-04-24 22:58 47.61953 -52.74849 474 ft 1 kts 289°
2026-04-24 22:58 47.61974 -52.74832 479 ft 11 kts 35°
2026-04-24 22:58 47.62048 -52.74738 480 ft 17 kts 48°
2026-04-24 22:59 47.62123 -52.74635 478 ft 11 kts
2026-04-24 22:59 47.62195 -52.74707 478 ft 16 kts 317°
2026-04-24 22:59 47.62447 -52.75054 478 ft 32 kts 290°
2026-04-24 23:00 47.62433 -52.75417 477 ft 39 kts 265°
2026-04-24 23:00 47.62412 -52.75819 485 ft 39 kts 266°
2026-04-24 23:00 47.62394 -52.76222 489 ft 40 kts 266°
2026-04-24 23:00 47.62375 -52.76644 484 ft 42 kts 266°
2026-04-24 23:01 47.62346 -52.77032 479 ft 19 kts 247°
2026-04-24 23:01 47.62366 -52.77085 483 ft 8 kts 52°
2026-04-24 23:01 47.62379 -52.76853 479 ft 55 kts 86°
2026-04-24 23:01 47.62427 -52.75906 481 ft 121 kts 86°
2026-04-24 23:02 47.62487 -52.74517 623 ft 137 kts 81°
2026-04-24 23:02 47.62556 -52.73107 1093 ft 141 kts 80°
2026-04-24 23:02 47.62620 -52.71545 1326 ft 164 kts 81°
2026-04-24 23:02 47.62696 -52.69713 1546 ft 190 kts 81°
2026-04-24 23:03 47.62776 -52.67718 2203 ft 186 kts 82°
2026-04-24 23:03 47.62848 -52.65857 2925 ft 186 kts 81°
2026-04-24 23:03 47.62941 -52.63920 3571 ft 188 kts 81°
2026-04-24 23:03 47.63575 -52.62217 3995 ft 201 kts 40°
2026-04-24 23:04 47.64965 -52.61770 4622 ft 220 kts 356°
2026-04-24 23:04 47.66342 -52.62958 5108 ft 248 kts 321°
2026-04-24 23:04 47.67300 -52.65170 5750 ft 258 kts 298°
2026-04-24 23:04 47.67800 -52.67732 6357 ft 267 kts 277°
2026-04-24 23:05 47.67776 -52.70504 7011 ft 272 kts 268°
2026-04-24 23:05 47.67693 -52.73432 7280 ft 295 kts 270°
2026-04-24 23:05 47.67718 -52.76532 7921 ft 301 kts 272°
2026-04-24 23:05 47.67774 -52.79637 8745 ft 303 kts 271°
2026-04-24 23:06 47.67792 -52.82758 9432 ft 308 kts 270°
2026-04-24 23:06 47.67795 -52.85952 10035 ft 311 kts 270°
2026-04-24 23:06 47.67811 -52.89247 10218 ft 332 kts 271°
2026-04-24 23:06 47.67838 -52.92810 10233 ft 359 kts 271°
2026-04-24 23:07 47.67857 -52.96623 10503 ft 374 kts 271°
2026-04-24 23:07 47.67870 -53.00498 11185 ft 376 kts 271°
2026-04-24 23:07 47.67886 -53.04408 11740 ft 382 kts 271°
2026-04-24 23:07 47.67903 -53.08359 12323 ft 386 kts 271°
2026-04-24 23:08 47.67917 -53.12366 12870 ft 391 kts 271°
2026-04-24 23:08 47.67928 -53.16434 13402 ft 397 kts 271°
2026-04-24 23:08 47.67936 -53.19164 13739 ft 399 kts 271°
2026-04-24 23:08 47.67950 -53.24654 14415 ft 405 kts 271°
2026-04-24 23:09 47.67958 -53.28853 14917 ft 409 kts 271°
2026-04-24 23:09 47.67965 -53.33085 15425 ft 413 kts 271°
2026-04-24 23:09 47.67969 -53.35971 15769 ft 415 kts 271°
2026-04-24 23:09 47.67973 -53.40226 16271 ft 420 kts 271°
2026-04-24 23:10 47.67976 -53.44581 16798 ft 424 kts 271°
2026-04-24 23:10 47.67977 -53.48980 17329 ft 428 kts 271°
2026-04-24 23:10 47.67977 -53.53413 17866 ft 432 kts 271°
2026-04-24 23:10 47.67974 -53.57893 18367 ft 436 kts 271°
2026-04-24 23:11 47.67970 -53.62401 18885 ft 438 kts 270°
2026-04-24 23:11 47.67962 -53.68488 19625 ft 442 kts 270°
2026-04-24 23:11 47.67956 -53.71512 19989 ft 444 kts 270°
2026-04-24 23:11 47.67947 -53.76106 20505 ft 447 kts 270°
2026-04-24 23:12 47.67936 -53.80735 21024 ft 450 kts 269°
2026-04-24 23:12 47.67922 -53.85403 21534 ft 454 kts 269°
2026-04-24 23:12 47.67906 -53.90104 22047 ft 457 kts 269°
2026-04-24 23:12 47.67889 -53.94838 22547 ft 460 kts 269°
2026-04-24 23:13 47.67869 -53.99603 23029 ft 464 kts 269°
2026-04-24 23:13 47.67847 -54.04408 23448 ft 467 kts 268°
2026-04-24 23:13 47.67823 -54.09240 23855 ft 470 kts 268°
2026-04-24 23:13 47.67797 -54.14103 24249 ft 473 kts 268°
2026-04-24 23:14 47.67769 -54.18929 24743 ft 473 kts 268°
2026-04-24 23:14 47.67739 -54.23830 25124 ft 477 kts 268°
2026-04-24 23:14 47.67706 -54.28771 25534 ft 480 kts 268°
2026-04-24 23:14 47.67671 -54.33734 25946 ft 483 kts 268°
2026-04-24 23:15 47.67633 -54.38729 26360 ft 486 kts 267°
2026-04-24 23:15 47.67593 -54.43768 26773 ft 489 kts 267°
2026-04-24 23:15 47.67551 -54.48825 27184 ft 492 kts 267°
2026-04-24 23:15 47.67505 -54.53925 27591 ft 495 kts 267°
2026-04-24 23:16 47.67458 -54.59064 28005 ft 499 kts 266°
2026-04-24 23:16 47.67409 -54.64152 28413 ft 502 kts 266°
2026-04-24 23:16 47.67355 -54.69351 28829 ft 504 kts 267°
2026-04-24 23:16 47.67301 -54.74538 29374 ft 504 kts 267°
2026-04-24 23:17 47.67243 -54.79763 29729 ft 508 kts 267°
2026-04-24 23:17 47.67183 -54.85011 30086 ft 510 kts 267°
2026-04-24 23:17 47.67120 -54.90278 30439 ft 512 kts 267°
2026-04-24 23:17 47.67054 -54.95557 30931 ft 510 kts 268°
2026-04-24 23:18 47.66987 -55.00815 31475 ft 508 kts 268°
2026-04-24 23:18 47.66916 -55.06059 31995 ft 507 kts 268°
2026-04-24 23:18 47.66843 -55.11301 32459 ft 507 kts 269°
2026-04-24 23:18 47.66769 -55.16530 32977 ft 506 kts 269°
2026-04-24 23:19 47.66693 -55.21749 33468 ft 506 kts 269°
2026-04-24 23:19 47.66614 -55.26971 33816 ft 507 kts 269°
2026-04-24 23:19 47.66531 -55.32190 34266 ft 505 kts 269°
2026-04-24 23:19 47.66448 -55.37316 34732 ft 503 kts 269°
2026-04-24 23:20 47.66364 -55.42485 35197 ft 501 kts 269°
2026-04-24 23:20 47.66277 -55.47636 35672 ft 499 kts 269°
2026-04-24 23:20 47.66187 -55.52776 36165 ft 496 kts 269°
2026-04-24 23:20 47.66095 -55.57883 36664 ft 494 kts 269°
2026-04-24 23:21 47.66002 -55.62968 37160 ft 492 kts 269°
2026-04-24 23:21 47.65907 -55.68031 37663 ft 490 kts 269°
2026-04-24 23:21 47.65810 -55.73080 38129 ft 489 kts 269°
2026-04-24 23:21 47.65711 -55.78125 38457 ft 490 kts 269°
2026-04-24 23:22 47.65610 -55.83180 38830 ft 489 kts 269°
2026-04-24 23:22 47.65507 -55.88210 39180 ft 488 kts 269°
2026-04-24 23:22 47.65401 -55.93239 39532 ft 488 kts 269°
2026-04-24 23:22 47.65294 -55.98264 39886 ft 487 kts 269°
2026-04-24 23:23 47.65184 -56.03287 40237 ft 487 kts 269°
2026-04-24 23:23 47.65073 -56.08308 40592 ft 487 kts 268°
2026-04-24 23:23 47.64960 -56.13321 40979 ft 485 kts 268°
2026-04-24 23:23 47.64844 -56.18324 41305 ft 486 kts 268°
2026-04-24 23:24 47.64724 -56.23333 41586 ft 487 kts 268°
2026-04-24 23:24 47.64603 -56.28364 41875 ft 488 kts 269°
2026-04-24 23:24 47.64481 -56.33389 42236 ft 487 kts 269°
2026-04-24 23:24 47.64357 -56.38415 42510 ft 488 kts 269°
2026-04-24 23:25 47.64230 -56.43409 42560 ft 494 kts 269°
2026-04-24 23:25 47.63961 -56.53740 42607 ft 508 kts 269°
2026-04-24 23:26 47.63677 -56.64334 42612 ft 520 kts 268°
2026-04-24 23:26 47.63376 -56.75155 42633 ft 530 kts 268°
2026-04-24 23:27 47.63061 -56.86080 42645 ft 530 kts 268°
2026-04-24 23:27 47.62738 -56.97002 42640 ft 531 kts 268°
2026-04-24 23:28 47.62402 -57.07895 42657 ft 530 kts 268°
2026-04-24 23:28 47.62056 -57.18835 42670 ft 529 kts 268°
2026-04-24 23:29 47.61700 -57.29769 42666 ft 539 kts 268°
2026-04-24 23:29 47.61329 -57.40863 42675 ft 540 kts 268°
2026-04-24 23:30 47.60943 -57.52009 42681 ft 541 kts 268°
2026-04-24 23:30 47.60548 -57.63148 42686 ft 542 kts 268°
2026-04-24 23:31 47.60140 -57.74301 42693 ft 541 kts 268°
2026-04-24 23:31 47.59723 -57.85449 42685 ft 540 kts 268°
2026-04-24 23:32 47.59297 -57.96541 42687 ft 539 kts 268°
2026-04-24 23:32 47.58860 -58.07621 42690 ft 537 kts 267°
2026-04-24 23:33 47.58419 -58.18578 42701 ft 536 kts 268°
2026-04-24 23:33 47.57962 -58.29619 42705 ft 537 kts 267°
2026-04-24 23:34 47.57496 -58.40628 42715 ft 535 kts 268°
2026-04-24 23:34 47.57022 -58.51625 42717 ft 534 kts 267°
2026-04-24 23:35 47.56536 -58.62591 42737 ft 535 kts 267°
2026-04-24 23:35 47.56038 -58.73668 42756 ft 542 kts 267°
2026-04-24 23:36 47.55521 -58.84840 42752 ft 544 kts 267°
2026-04-24 23:36 47.54994 -58.96048 42764 ft 545 kts 267°
2026-04-24 23:37 47.54454 -59.07234 42763 ft 546 kts 267°
2026-04-24 23:37 47.53629 -59.23950 42767 ft 546 kts 267°
2026-04-24 23:38 47.53063 -59.35141 42758 ft 542 kts 267°
2026-04-24 23:38 47.52490 -59.46256 42768 ft 538 kts 267°
2026-04-24 23:39 47.51912 -59.57260 42776 ft 536 kts 266°
2026-04-24 23:39 47.51327 -59.68199 42779 ft 532 kts 268°
2026-04-24 23:40 47.50734 -59.79110 42791 ft 530 kts 266°
2026-04-24 23:40 47.50131 -59.89985 42798 ft 530 kts 267°
2026-04-24 23:41 47.49522 -60.00788 42808 ft 531 kts 267°
2026-04-24 23:41 47.48896 -60.11708 42819 ft 534 kts 266°
2026-04-24 23:42 47.48258 -60.22683 42827 ft 537 kts 266°
2026-04-24 23:42 47.47604 -60.33691 42822 ft 539 kts 266°
2026-04-24 23:43 47.46938 -60.44763 42830 ft 541 kts 266°
2026-04-24 23:43 47.46259 -60.55853 42840 ft 542 kts 266°
2026-04-24 23:44 47.45568 -60.66950 42856 ft 543 kts 266°
2026-04-24 23:44 47.44868 -60.78047 42850 ft 542 kts 266°
2026-04-24 23:45 47.44154 -60.89176 42858 ft 543 kts 266°
2026-04-24 23:45 47.43430 -61.00286 42850 ft 544 kts 266°
2026-04-24 23:46 47.42694 -61.11410 42853 ft 544 kts 266°
2026-04-24 23:46 47.41952 -61.22464 42864 ft 544 kts 266°
2026-04-24 23:47 47.41195 -61.33593 42870 ft 545 kts 265°
2026-04-24 23:47 47.40426 -61.44722 42874 ft 544 kts 265°
2026-04-24 23:48 47.39648 -61.55844 42880 ft 545 kts 265°
2026-04-24 23:48 47.38855 -61.66973 42877 ft 545 kts 265°
2026-04-24 23:49 47.38055 -61.78093 42879 ft 545 kts 265°
2026-04-24 23:49 47.37243 -61.89211 42893 ft 545 kts 265°
2026-04-24 23:50 47.36422 -62.00314 42892 ft 546 kts 265°
2026-04-24 23:50 47.35585 -62.11450 42898 ft 545 kts 265°
2026-04-24 23:51 47.34742 -62.22560 42899 ft 545 kts 265°
2026-04-24 23:51 47.33885 -62.33675 42902 ft 545 kts 265°
2026-04-24 23:52 47.33019 -62.44792 42908 ft 545 kts 265°
2026-04-24 23:52 47.32141 -62.55911 42914 ft 546 kts 265°
2026-04-24 23:53 47.31252 -62.67019 42922 ft 546 kts 265°
2026-04-24 23:53 47.30353 -62.78132 42925 ft 546 kts 265°
2026-04-24 23:54 47.29443 -62.89232 42935 ft 546 kts 265°
2026-04-24 23:54 47.28677 -62.98462 42932 ft 545 kts 265°
2026-04-24 23:55 47.27598 -63.11342 42932 ft 545 kts 265°
2026-04-24 23:55 47.26656 -63.22422 42934 ft 545 kts 264°
2026-04-24 23:56 47.25866 -63.31635 42936 ft 545 kts 264°
2026-04-24 23:56 47.24905 -63.42708 42939 ft 545 kts 264°
2026-04-24 23:57 47.23937 -63.53743 42958 ft 543 kts 264°
2026-04-24 23:57 47.22959 -63.64766 42965 ft 543 kts 264°
2026-04-24 23:58 47.21970 -63.75773 42964 ft 543 kts 264°
2026-04-24 23:58 47.20971 -63.86794 42967 ft 543 kts 264°
2026-04-24 23:59 47.19961 -63.97804 42965 ft 543 kts 264°
2026-04-24 23:59 47.18940 -64.08815 42973 ft 543 kts 264°
2026-04-25 00:00 47.17916 -64.19743 42973 ft 543 kts 264°
2026-04-25 00:00 47.16871 -64.30775 42982 ft 543 kts 264°
2026-04-25 00:01 47.15820 -64.41766 42983 ft 543 kts 264°
2026-04-25 00:01 47.14765 -64.52674 42983 ft 542 kts 264°
2026-04-25 00:02 47.13695 -64.63632 42983 ft 542 kts 264°
2026-04-25 00:02 47.12614 -64.74585 42988 ft 542 kts 264°
2026-04-25 00:03 47.11524 -64.85525 42990 ft 541 kts 264°
2026-04-25 00:03 47.10424 -64.96455 42975 ft 541 kts 264°
2026-04-25 00:04 47.09315 -65.07357 43004 ft 540 kts 263°
2026-04-25 00:04 47.08196 -65.18267 43005 ft 540 kts 263°
2026-04-25 00:05 47.07066 -65.29173 43010 ft 540 kts 263°
2026-04-25 00:05 47.05933 -65.40008 43016 ft 541 kts 263°
2026-04-25 00:06 47.04775 -65.50964 43010 ft 539 kts 263°
2026-04-25 00:06 47.03619 -65.61818 43008 ft 539 kts 263°
2026-04-25 00:07 47.02456 -65.72609 43015 ft 539 kts 263°
2026-04-25 00:07 47.01280 -65.83456 43012 ft 539 kts 263°
2026-04-25 00:08 47.00091 -65.94299 43012 ft 539 kts 263°
2026-04-25 00:08 46.98894 -66.05126 43013 ft 538 kts 263°
2026-04-25 00:09 46.97684 -66.15966 43015 ft 537 kts 263°
2026-04-25 00:09 46.96471 -66.26756 43015 ft 537 kts 263°
2026-04-25 00:10 46.95253 -66.37471 43012 ft 537 kts 263°
2026-04-25 00:10 46.94017 -66.48266 43015 ft 536 kts 263°
2026-04-25 00:11 46.92775 -66.59023 43020 ft 536 kts 263°
2026-04-25 00:11 46.91522 -66.69780 43022 ft 536 kts 263°
2026-04-25 00:12 46.90259 -66.80522 43014 ft 536 kts 263°
2026-04-25 00:12 46.88987 -66.91253 43017 ft 535 kts 263°
2026-04-25 00:13 46.87707 -67.01971 43017 ft 535 kts 263°
2026-04-25 00:13 46.85977 -67.12580 43020 ft 538 kts 257°
2026-04-25 00:14 46.84007 -67.23050 43031 ft 537 kts 258°
2026-04-25 00:14 46.82098 -67.33608 43030 ft 538 kts 257°
2026-04-25 00:15 46.80117 -67.44141 43014 ft 537 kts 257°
2026-04-25 00:15 46.78170 -67.54679 43014 ft 538 kts 257°
2026-04-25 00:16 46.76179 -67.65225 43016 ft 538 kts 257°
2026-04-25 00:16 46.74198 -67.75755 43028 ft 539 kts 257°
2026-04-25 00:17 46.72200 -67.86285 43036 ft 539 kts 257°
2026-04-25 00:17 46.70197 -67.96802 43039 ft 539 kts 257°
2026-04-25 00:18 46.68192 -68.07258 43036 ft 540 kts 257°
2026-04-25 00:18 46.66162 -68.17792 43034 ft 540 kts 257°
2026-04-25 00:19 46.64125 -68.28303 43048 ft 540 kts 257°
2026-04-25 00:19 46.62076 -68.38817 43043 ft 540 kts 257°
2026-04-25 00:20 46.60021 -68.49308 43048 ft 540 kts 257°
2026-04-25 00:20 46.57958 -68.59776 43042 ft 539 kts 257°
2026-04-25 00:21 46.55886 -68.70247 43048 ft 539 kts 257°
2026-04-25 00:21 46.53816 -68.80636 43052 ft 539 kts 257°
2026-04-25 00:22 46.51724 -68.91093 43061 ft 539 kts 257°
2026-04-25 00:22 46.49621 -69.01541 43060 ft 539 kts 257°
2026-04-25 00:23 46.47511 -69.11973 43064 ft 538 kts 257°
2026-04-25 00:23 46.45390 -69.22404 43062 ft 539 kts 257°
2026-04-25 00:24 46.43260 -69.32821 43060 ft 539 kts 257°
2026-04-25 00:24 46.41122 -69.43227 43059 ft 539 kts 257°
2026-04-25 00:25 46.38973 -69.53630 43063 ft 539 kts 256°
2026-04-25 00:25 46.36811 -69.64040 43057 ft 539 kts 256°
2026-04-25 00:26 46.34661 -69.74345 43059 ft 539 kts 256°
2026-04-25 00:26 46.32481 -69.84734 43055 ft 539 kts 256°
2026-04-25 00:27 46.30293 -69.95112 43065 ft 539 kts 256°
2026-04-25 00:27 46.28098 -70.05470 43063 ft 538 kts 256°
2026-04-25 00:28 46.25897 -70.15805 43059 ft 538 kts 256°
2026-04-25 00:28 46.23690 -70.26113 43061 ft 537 kts 256°
2026-04-25 00:29 46.21421 -70.36407 43064 ft 538 kts 255°
2026-04-25 00:29 46.19139 -70.46679 43065 ft 537 kts 256°
2026-04-25 00:30 46.16872 -70.56892 43073 ft 538 kts 255°
2026-04-25 00:30 46.14567 -70.67162 43075 ft 538 kts 255°
2026-04-25 00:31 46.12269 -70.77407 43070 ft 537 kts 255°
2026-04-25 00:31 46.09953 -70.87644 43075 ft 537 kts 255°
2026-04-25 00:32 46.07635 -70.97871 43079 ft 537 kts 255°
2026-04-25 00:32 46.05302 -71.08087 43076 ft 536 kts 255°
2026-04-25 00:33 46.02968 -71.18282 43081 ft 537 kts 255°
2026-04-25 00:33 46.00625 -71.28448 43084 ft 534 kts 255°
2026-04-25 00:34 45.98299 -71.38518 43091 ft 535 kts 255°
2026-04-25 00:34 45.95941 -71.48657 43089 ft 535 kts 254°
2026-04-25 00:35 45.93579 -71.58776 43093 ft 534 kts 254°
2026-04-25 00:35 45.91203 -71.68905 43093 ft 534 kts 254°
2026-04-25 00:36 45.88825 -71.78996 43090 ft 533 kts 254°
2026-04-25 00:36 45.86438 -71.89086 43083 ft 533 kts 254°
2026-04-25 00:37 45.84044 -71.99149 43079 ft 533 kts 254°
2026-04-25 00:37 45.81648 -72.09176 43089 ft 531 kts 254°
2026-04-25 00:38 45.79243 -72.19201 43089 ft 532 kts 254°
2026-04-25 00:38 45.76848 -72.29135 43087 ft 531 kts 254°
2026-04-25 00:39 45.74430 -72.39127 43090 ft 531 kts 254°
2026-04-25 00:39 45.72000 -72.49114 43091 ft 531 kts 254°
2026-04-25 00:40 45.69572 -72.59055 43090 ft 529 kts 254°
2026-04-25 00:40 45.67135 -72.68988 43088 ft 529 kts 254°
2026-04-25 00:41 45.64691 -72.78902 43090 ft 528 kts 254°
2026-04-25 00:41 45.62246 -72.88787 43084 ft 528 kts 254°
2026-04-25 00:42 45.59789 -72.98664 43057 ft 527 kts 254°
2026-04-25 00:42 45.57336 -73.08491 43084 ft 525 kts 254°
2026-04-25 00:43 45.54872 -73.18320 43074 ft 526 kts 254°
2026-04-25 00:43 45.52401 -73.28129 43070 ft 525 kts 254°
2026-04-25 00:44 45.49938 -73.37871 43072 ft 526 kts 254°
2026-04-25 00:44 45.47854 -73.46076 43043 ft 526 kts 254°
2026-04-25 00:45 45.45368 -73.55826 43061 ft 522 kts 254°
2026-04-25 00:45 45.42897 -73.65487 43067 ft 523 kts 254°
2026-04-25 00:46 45.40393 -73.75228 43073 ft 523 kts 254°
2026-04-25 00:47 45.36638 -73.89760 43055 ft 522 kts 254°
2026-04-25 00:47 45.34123 -73.99444 43047 ft 522 kts 254°
2026-04-25 00:48 45.31599 -74.09121 43039 ft 522 kts 254°
2026-04-25 00:48 45.29069 -74.18782 43039 ft 522 kts 253°
2026-04-25 00:49 45.26526 -74.28453 43040 ft 522 kts 253°
2026-04-25 00:49 45.23984 -74.38083 43030 ft 522 kts 253°
2026-04-25 00:50 45.21439 -74.47685 43026 ft 523 kts 253°
2026-04-25 00:50 45.18868 -74.57339 43028 ft 523 kts 253°
2026-04-25 00:51 45.16292 -74.66982 43030 ft 523 kts 253°
2026-04-25 00:51 45.13703 -74.76626 43027 ft 523 kts 253°
2026-04-25 00:52 45.11318 -74.86266 43023 ft 522 kts 255°
2026-04-25 00:52 45.08905 -74.95970 43037 ft 523 kts 255°
2026-04-25 00:53 45.06502 -75.05687 43035 ft 523 kts 255°
2026-04-25 00:53 45.04075 -75.15399 43024 ft 523 kts 255°
2026-04-25 00:54 45.01651 -75.25096 43030 ft 523 kts 255°
2026-04-25 00:54 44.99215 -75.34773 43005 ft 522 kts 255°
2026-04-25 00:55 44.96777 -75.44438 43003 ft 522 kts 255°
2026-04-25 00:55 44.94327 -75.54096 42995 ft 523 kts 255°
2026-04-25 00:56 44.91870 -75.63752 42998 ft 523 kts 255°
2026-04-25 00:56 44.89405 -75.73391 43003 ft 523 kts 255°
2026-04-25 00:57 44.86932 -75.83019 43006 ft 520 kts 255°
2026-04-25 00:57 44.84462 -75.92611 43016 ft 521 kts 255°
2026-04-25 00:58 44.81994 -76.02143 43015 ft 521 kts 255°
2026-04-25 00:58 44.79507 -76.11714 43016 ft 521 kts 255°
2026-04-25 00:59 44.76935 -76.21246 43000 ft 524 kts 250°
2026-04-25 00:59 44.73254 -76.30133 43025 ft 524 kts 242°
2026-04-25 01:00 44.69439 -76.38869 43028 ft 524 kts 244°
2026-04-25 01:00 44.65652 -76.47625 43023 ft 525 kts 243°
2026-04-25 01:01 44.61817 -76.56353 43021 ft 524 kts 243°
2026-04-25 01:01 44.58012 -76.65080 43011 ft 522 kts 243°
2026-04-25 01:02 44.54187 -76.73750 43001 ft 521 kts 243°
2026-04-25 01:02 44.50394 -76.82378 43003 ft 520 kts 243°
2026-04-25 01:03 44.46581 -76.90987 43000 ft 520 kts 243°
2026-04-25 01:03 44.42795 -76.99534 43009 ft 519 kts 243°
2026-04-25 01:04 44.38978 -77.08112 42999 ft 519 kts 243°
2026-04-25 01:04 44.35158 -77.16679 42999 ft 519 kts 243°
2026-04-25 01:05 44.31333 -77.25225 42993 ft 519 kts 242°
2026-04-25 01:05 44.27500 -77.33767 42988 ft 518 kts 242°
2026-04-25 01:06 44.23668 -77.42284 42981 ft 518 kts 242°
2026-04-25 01:06 44.19951 -77.50868 42965 ft 514 kts 248°
2026-04-25 01:07 44.17299 -77.59993 42957 ft 510 kts 253°
2026-04-25 01:07 44.14662 -77.69147 42992 ft 509 kts 252°
2026-04-25 01:08 44.12022 -77.78304 42990 ft 509 kts 252°
2026-04-25 01:08 44.09381 -77.87447 42991 ft 509 kts 252°
2026-04-25 01:09 44.06725 -77.96574 42966 ft 509 kts 252°
2026-04-25 01:09 44.04075 -78.05678 42972 ft 508 kts 252°
2026-04-25 01:10 44.01416 -78.14761 42964 ft 508 kts 252°
2026-04-25 01:10 43.98768 -78.23784 42969 ft 507 kts 252°
2026-04-25 01:11 43.96095 -78.32858 42968 ft 507 kts 252°
2026-04-25 01:11 43.93418 -78.41909 42967 ft 507 kts 251°
2026-04-25 01:12 43.90736 -78.50953 42968 ft 507 kts 251°
2026-04-25 01:12 43.88042 -78.59996 42970 ft 507 kts 251°
2026-04-25 01:13 43.85340 -78.69039 42942 ft 507 kts 251°
2026-04-25 01:13 43.82635 -78.78060 42964 ft 507 kts 251°
2026-04-25 01:14 43.79922 -78.87074 42968 ft 507 kts 251°
2026-04-25 01:14 43.77201 -78.96083 42966 ft 507 kts 251°
2026-04-25 01:15 43.74472 -79.05088 42969 ft 507 kts 251°
2026-04-25 01:15 43.71731 -79.14104 42949 ft 510 kts 250°
2026-04-25 01:16 43.68977 -79.23119 42935 ft 509 kts 250°
2026-04-25 01:16 43.66247 -79.32088 42925 ft 508 kts 252°
2026-04-25 01:17 43.64665 -79.41498 42933 ft 502 kts 265°
2026-04-25 01:17 43.63743 -79.51020 42945 ft 500 kts 264°
2026-04-25 01:18 43.62729 -79.60535 42943 ft 500 kts 265°
2026-04-25 01:18 43.61765 -79.70042 42978 ft 501 kts 264°
2026-04-25 01:19 43.60753 -79.79545 42972 ft 500 kts 264°
2026-04-25 01:19 43.59764 -79.88988 42956 ft 496 kts 265°
2026-04-25 01:20 43.58758 -79.98405 42942 ft 497 kts 264°
2026-04-25 01:20 43.57746 -80.07851 42938 ft 497 kts 264°
2026-04-25 01:21 43.56724 -80.17285 42918 ft 497 kts 264°
2026-04-25 01:21 43.55704 -80.26636 42931 ft 491 kts 264°
2026-04-25 01:22 43.54683 -80.35950 42928 ft 492 kts 264°
2026-04-25 01:22 43.53649 -80.45268 42930 ft 492 kts 264°
2026-04-25 01:23 43.52610 -80.54588 42924 ft 491 kts 264°
2026-04-25 01:23 43.51578 -80.63752 42920 ft 486 kts 264°
2026-04-25 01:24 43.50536 -80.72972 42912 ft 487 kts 264°
2026-04-25 01:24 43.49483 -80.82180 42906 ft 487 kts 264°
2026-04-25 01:25 43.48424 -80.91405 42883 ft 487 kts 263°
2026-04-25 01:25 43.47361 -81.00568 42894 ft 484 kts 263°
2026-04-25 01:26 43.46297 -81.09712 42888 ft 484 kts 263°
2026-04-25 01:26 43.45221 -81.18855 42886 ft 484 kts 263°
2026-04-25 01:27 43.44141 -81.27991 42874 ft 484 kts 263°
2026-04-25 01:27 43.43056 -81.37085 42855 ft 481 kts 263°
2026-04-25 01:28 43.41605 -81.49177 42860 ft 481 kts 262°
2026-04-25 01:28 43.40319 -81.59787 42848 ft 481 kts 262°
2026-04-25 01:29 43.39399 -81.67333 42850 ft 480 kts 262°
2026-04-25 01:29 43.38294 -81.76317 42843 ft 476 kts 262°
2026-04-25 01:30 43.37006 -81.86756 42845 ft 476 kts 262°
2026-04-25 01:30 43.36069 -81.94273 42844 ft 476 kts 262°
2026-04-25 01:31 43.34945 -82.03252 42852 ft 476 kts 262°
2026-04-25 01:31 43.33820 -82.12176 42848 ft 476 kts 262°
2026-04-25 01:32 43.32682 -82.21139 42850 ft 476 kts 262°
2026-04-25 01:32 43.31536 -82.30113 42852 ft 476 kts 261°
2026-04-25 01:33 43.30384 -82.39072 42852 ft 477 kts 261°
2026-04-25 01:33 43.29220 -82.48056 42844 ft 478 kts 261°
2026-04-25 01:34 43.28047 -82.57060 42831 ft 478 kts 261°
2026-04-25 01:34 43.26869 -82.66050 42833 ft 478 kts 261°
2026-04-25 01:35 43.25158 -82.74858 42826 ft 480 kts 250°
2026-04-25 01:35 43.22741 -82.83430 42832 ft 483 kts 250°
2026-04-25 01:36 43.20332 -82.92048 42824 ft 483 kts 250°
2026-04-25 01:36 43.17906 -83.00626 42826 ft 483 kts 250°
2026-04-25 01:37 43.15498 -83.09156 42815 ft 483 kts 250°
2026-04-25 01:37 43.13060 -83.17730 42816 ft 482 kts 250°
2026-04-25 01:38 43.10634 -83.26257 42816 ft 481 kts 250°
2026-04-25 01:38 43.08194 -83.34792 42815 ft 481 kts 250°
2026-04-25 01:39 43.05752 -83.43310 42817 ft 481 kts 250°
2026-04-25 01:39 43.03302 -83.51824 42805 ft 481 kts 250°
2026-04-25 01:40 43.00863 -83.60267 42815 ft 481 kts 249°
2026-04-25 01:40 42.98390 -83.68809 42817 ft 481 kts 249°
2026-04-25 01:41 42.96142 -83.77330 42812 ft 479 kts 255°
2026-04-25 01:41 42.94389 -83.86131 42821 ft 480 kts 255°
2026-04-25 01:42 42.92601 -83.94903 42838 ft 478 kts 255°
2026-04-25 01:42 42.90835 -84.03661 42839 ft 479 kts 255°
2026-04-25 01:43 42.89045 -84.12408 42827 ft 479 kts 255°
2026-04-25 01:43 42.87260 -84.21153 42825 ft 479 kts 255°
2026-04-25 01:44 42.85464 -84.29872 42824 ft 478 kts 254°
2026-04-25 01:44 42.83673 -84.38552 42834 ft 476 kts 254°
2026-04-25 01:45 42.81885 -84.47178 42839 ft 476 kts 254°
2026-04-25 01:45 42.80078 -84.55858 42840 ft 476 kts 254°
2026-04-25 01:46 42.78252 -84.64520 42844 ft 476 kts 254°
2026-04-25 01:46 42.76425 -84.73155 42834 ft 473 kts 253°
2026-04-25 01:47 42.74596 -84.81783 42829 ft 474 kts 253°
2026-04-25 01:47 42.72758 -84.90398 42829 ft 474 kts 253°
2026-04-25 01:48 42.70926 -84.98961 42831 ft 474 kts 253°
2026-04-25 01:48 42.69077 -85.07562 42831 ft 472 kts 253°
2026-04-25 01:49 42.67231 -85.16115 42835 ft 472 kts 253°
2026-04-25 01:49 42.65396 -85.24671 42832 ft 472 kts 253°
2026-04-25 01:50 42.63557 -85.33234 42842 ft 472 kts 253°
2026-04-25 01:50 42.61711 -85.41776 42838 ft 472 kts 253°
2026-04-25 01:51 42.60789 -85.46039 42843 ft 470 kts 253°
2026-04-25 01:51 42.59081 -85.53898 42843 ft 470 kts 252°
2026-04-25 01:52 42.57228 -85.62403 42842 ft 470 kts 252°
2026-04-25 01:52 42.55367 -85.70901 42846 ft 470 kts 252°
2026-04-25 01:53 42.53501 -85.79392 42834 ft 470 kts 252°
2026-04-25 01:53 42.51628 -85.87880 42840 ft 470 kts 252°
2026-04-25 01:54 42.49760 -85.96312 42845 ft 470 kts 252°
2026-04-25 01:54 42.47875 -86.04791 42852 ft 470 kts 252°
2026-04-25 01:55 42.46243 -86.13381 42847 ft 471 kts 259°
2026-04-25 01:55 42.45168 -86.22139 42860 ft 470 kts 258°
2026-04-25 01:56 42.44068 -86.30866 42876 ft 471 kts 258°
2026-04-25 01:56 42.42977 -86.39612 42866 ft 471 kts 258°
2026-04-25 01:57 42.41317 -86.52707 42860 ft 471 kts 258°
2026-04-25 01:58 42.40201 -86.61437 42876 ft 471 kts 258°
2026-04-25 01:58 42.39081 -86.70168 42888 ft 471 kts 258°
2026-04-25 01:59 42.37952 -86.78895 42889 ft 471 kts 258°
2026-04-25 01:59 42.36817 -86.87626 42899 ft 471 kts 258°
2026-04-25 02:00 42.35675 -86.96358 42914 ft 472 kts 258°
2026-04-25 02:00 42.34523 -87.05107 42915 ft 472 kts 257°
2026-04-25 02:01 42.33371 -87.13806 42908 ft 473 kts 257°
2026-04-25 02:01 42.32206 -87.22549 42909 ft 473 kts 257°
2026-04-25 02:02 42.31034 -87.31287 42897 ft 473 kts 257°
2026-04-25 02:02 42.29852 -87.40045 42898 ft 474 kts 257°
2026-04-25 02:03 42.28648 -87.48805 42884 ft 474 kts 257°
2026-04-25 02:03 42.27432 -87.57562 42883 ft 474 kts 257°
2026-04-25 02:04 42.26223 -87.66251 42886 ft 474 kts 257°
2026-04-25 02:04 42.24993 -87.75012 42883 ft 477 kts 257°
2026-04-25 02:05 42.23754 -87.83807 42880 ft 476 kts 257°
2026-04-25 02:05 42.22567 -87.92594 42863 ft 478 kts 260°
2026-04-25 02:06 42.22641 -88.01611 42870 ft 484 kts 272°
2026-04-25 02:06 42.23348 -88.10647 42880 ft 485 kts 272°
2026-04-25 02:07 42.24033 -88.19660 42875 ft 486 kts 272°
2026-04-25 02:07 42.24727 -88.28735 42875 ft 486 kts 272°
2026-04-25 02:08 42.25405 -88.37824 42878 ft 486 kts 272°
2026-04-25 02:08 42.26083 -88.46907 42879 ft 486 kts 272°
2026-04-25 02:09 42.26750 -88.56030 42885 ft 488 kts 272°
2026-04-25 02:09 42.27416 -88.65163 42888 ft 488 kts 272°
2026-04-25 02:10 42.28071 -88.74292 42888 ft 489 kts 272°
2026-04-25 02:10 42.28716 -88.83369 42890 ft 489 kts 272°
2026-04-25 02:11 42.29358 -88.92522 42889 ft 490 kts 272°
2026-04-25 02:11 42.29995 -89.01682 42895 ft 490 kts 272°
2026-04-25 02:12 42.30623 -89.10849 42926 ft 490 kts 271°
2026-04-25 02:12 42.31245 -89.20009 42922 ft 490 kts 271°
2026-04-25 02:13 42.31859 -89.29191 42916 ft 491 kts 271°
2026-04-25 02:13 42.32458 -89.38384 42924 ft 491 kts 271°
2026-04-25 02:14 42.33036 -89.47576 42931 ft 491 kts 271°
2026-04-25 02:14 42.33616 -89.56772 42937 ft 491 kts 271°
2026-04-25 02:15 42.34182 -89.65970 42932 ft 491 kts 271°
2026-04-25 02:15 42.34745 -89.75158 42923 ft 491 kts 271°
2026-04-25 02:16 42.35206 -89.82806 42917 ft 491 kts 271°
2026-04-25 02:16 42.35754 -89.92003 42908 ft 491 kts 271°
2026-04-25 02:17 42.36294 -90.01204 42909 ft 492 kts 271°
2026-04-25 02:17 42.36831 -90.10443 42900 ft 493 kts 271°
2026-04-25 02:18 42.37359 -90.19694 42906 ft 493 kts 271°
2026-04-25 02:18 42.37879 -90.28928 42911 ft 492 kts 271°
2026-04-25 02:19 42.38389 -90.38108 42919 ft 492 kts 271°
2026-04-25 02:19 42.38896 -90.47379 42933 ft 494 kts 271°
2026-04-25 02:20 42.39397 -90.56655 42941 ft 494 kts 271°
2026-04-25 02:20 42.39787 -90.65924 42924 ft 492 kts 266°
2026-04-25 02:21 42.38730 -90.74964 42927 ft 485 kts 251°
2026-04-25 02:21 42.36239 -90.83450 42948 ft 485 kts 245°
2026-04-25 02:22 42.33646 -90.91797 42939 ft 485 kts 246°
2026-04-25 02:22 42.31010 -91.00187 42935 ft 485 kts 245°
2026-04-25 02:23 42.28378 -91.08574 42936 ft 485 kts 245°
2026-04-25 02:23 42.25733 -91.16956 42927 ft 486 kts 245°
2026-04-25 02:24 42.23083 -91.25337 42924 ft 485 kts 245°
2026-04-25 02:24 42.20427 -91.33708 42925 ft 485 kts 245°
2026-04-25 02:25 42.17767 -91.42066 42926 ft 484 kts 245°
2026-04-25 02:25 42.15103 -91.50412 42928 ft 484 kts 245°
2026-04-25 02:26 42.12442 -91.58719 42937 ft 485 kts 245°
2026-04-25 02:26 42.09763 -91.67064 42938 ft 485 kts 245°
2026-04-25 02:27 42.07077 -91.75398 42936 ft 485 kts 245°
2026-04-25 02:27 42.04385 -91.83727 42938 ft 485 kts 245°
2026-04-25 02:28 42.01684 -91.92057 42947 ft 485 kts 245°
2026-04-25 02:28 41.98979 -92.00373 42938 ft 485 kts 245°
2026-04-25 02:29 41.96267 -92.08686 42929 ft 485 kts 245°
2026-04-25 02:29 41.93558 -92.16964 42935 ft 485 kts 245°
2026-04-25 02:30 41.90840 -92.25248 42932 ft 485 kts 245°
2026-04-25 02:30 41.88113 -92.33528 42952 ft 484 kts 245°
2026-04-25 02:31 41.85384 -92.41796 42956 ft 485 kts 245°
2026-04-25 02:31 41.82647 -92.50059 42961 ft 485 kts 245°
2026-04-25 02:32 41.79942 -92.58201 42960 ft 470 kts 245°
2026-04-25 02:32 41.77275 -92.66204 42956 ft 470 kts 245°
2026-04-25 02:33 41.74599 -92.74215 42966 ft 471 kts 245°
2026-04-25 02:33 41.71916 -92.82217 42940 ft 471 kts 245°
2026-04-25 02:34 41.69231 -92.90207 42941 ft 471 kts 245°
2026-04-25 02:34 41.66539 -92.98192 42943 ft 471 kts 245°
2026-04-25 02:35 41.63845 -93.06162 42821 ft 464 kts 245°
2026-04-25 02:35 41.62535 -93.10029 42179 ft 449 kts 245°
2026-04-25 02:35 41.61265 -93.13768 41606 ft 434 kts 245°
2026-04-25 02:35 41.60035 -93.17389 41046 ft 422 kts 245°
2026-04-25 02:36 41.58834 -93.20921 40505 ft 415 kts 245°
2026-04-25 02:36 41.57658 -93.24375 39971 ft 414 kts 245°
2026-04-25 02:36 41.56462 -93.27883 39427 ft 416 kts 245°
2026-04-25 02:36 41.55249 -93.31439 38882 ft 416 kts 245°
2026-04-25 02:37 41.54046 -93.34956 38283 ft 416 kts 245°
2026-04-25 02:37 41.52860 -93.38420 37731 ft 417 kts 245°
2026-04-25 02:37 41.51650 -93.41951 37189 ft 419 kts 245°
2026-04-25 02:37 41.50435 -93.45494 36633 ft 421 kts 245°
2026-04-25 02:38 41.49210 -93.49057 36081 ft 423 kts 246°
2026-04-25 02:38 41.47982 -93.52626 35519 ft 425 kts 246°
2026-04-25 02:38 41.46747 -93.56211 34959 ft 426 kts 246°
2026-04-25 02:38 41.45505 -93.59812 34394 ft 428 kts 246°
2026-04-25 02:39 41.44258 -93.63424 33834 ft 429 kts 246°
2026-04-25 02:39 41.43006 -93.67047 33254 ft 431 kts 246°
2026-04-25 02:39 41.41747 -93.70683 32683 ft 433 kts 246°
2026-04-25 02:39 41.40484 -93.74325 32113 ft 434 kts 246°
2026-04-25 02:40 41.39213 -93.77995 31534 ft 435 kts 246°
2026-04-25 02:40 41.38415 -93.81868 30828 ft 437 kts 264°
2026-04-25 02:40 41.38482 -93.85777 30745 ft 404 kts 275°
2026-04-25 02:40 41.38890 -93.89277 30869 ft 375 kts 278°
2026-04-25 02:41 41.39310 -93.92716 30875 ft 383 kts 277°
2026-04-25 02:41 41.39679 -93.96368 30398 ft 413 kts 276°
2026-04-25 02:41 41.40044 -94.00248 29800 ft 424 kts 276°
2026-04-25 02:41 41.40454 -94.04147 29234 ft 425 kts 277°
2026-04-25 02:42 41.40880 -94.08032 28669 ft 424 kts 277°
2026-04-25 02:42 41.41280 -94.11910 28111 ft 422 kts 277°
2026-04-25 02:42 41.41663 -94.15768 27556 ft 419 kts 277°
2026-04-25 02:42 41.42055 -94.19608 27012 ft 416 kts 277°
2026-04-25 02:43 41.42449 -94.23393 26461 ft 409 kts 277°
2026-04-25 02:43 41.42832 -94.27142 25923 ft 407 kts 277°
2026-04-25 02:43 41.43206 -94.30860 25390 ft 404 kts 277°
2026-04-25 02:43 41.43579 -94.34559 24864 ft 401 kts 277°
2026-04-25 02:44 41.43951 -94.38229 24328 ft 399 kts 277°
2026-04-25 02:44 41.44318 -94.41879 23808 ft 396 kts 277°
2026-04-25 02:44 41.44681 -94.45510 23253 ft 393 kts 277°
2026-04-25 02:44 41.45041 -94.49118 22728 ft 391 kts 277°
2026-04-25 02:45 41.45397 -94.52692 22219 ft 388 kts 277°
2026-04-25 02:45 41.45750 -94.56251 21709 ft 386 kts 277°
2026-04-25 02:45 41.46098 -94.59775 21199 ft 382 kts 277°
2026-04-25 02:45 41.46439 -94.63235 20700 ft 380 kts 277°
2026-04-25 02:46 41.46782 -94.66720 20212 ft 378 kts 277°
2026-04-25 02:46 41.47124 -94.70212 19701 ft 373 kts 276°
2026-04-25 02:46 41.47453 -94.73581 19217 ft 370 kts 276°
2026-04-25 02:46 41.47784 -94.76975 18730 ft 368 kts 276°
2026-04-25 02:47 41.48112 -94.80351 18242 ft 365 kts 276°
2026-04-25 02:47 41.48436 -94.83698 17738 ft 363 kts 276°
2026-04-25 02:47 41.48757 -94.87031 17260 ft 361 kts 276°
2026-04-25 02:47 41.49077 -94.90347 16786 ft 359 kts 276°
2026-04-25 02:48 41.49393 -94.93645 16315 ft 358 kts 276°
2026-04-25 02:48 41.49706 -94.96928 15846 ft 353 kts 276°
2026-04-25 02:48 41.50016 -95.00175 15379 ft 352 kts 276°
2026-04-25 02:48 41.50323 -95.03413 14914 ft 350 kts 276°
2026-04-25 02:49 41.50627 -95.06628 14448 ft 348 kts 276°
2026-04-25 02:49 41.50924 -95.09784 13996 ft 346 kts 275°
2026-04-25 02:49 41.50904 -95.12967 13485 ft 342 kts 260°
2026-04-25 02:49 41.50180 -95.15971 13034 ft 340 kts 245°
2026-04-25 02:50 41.49076 -95.18761 12622 ft 339 kts 242°
2026-04-25 02:50 41.47960 -95.21557 12169 ft 336 kts 243°
2026-04-25 02:50 41.46892 -95.24278 11729 ft 334 kts 243°
2026-04-25 02:50 41.45815 -95.27016 11284 ft 332 kts 243°
2026-04-25 02:51 41.44763 -95.29664 10854 ft 310 kts 242°
2026-04-25 02:51 41.43792 -95.32103 10451 ft 287 kts 242°
2026-04-25 02:51 41.42884 -95.34398 10089 ft 276 kts 242°
2026-04-25 02:51 41.41995 -95.36643 9718 ft 272 kts 242°
2026-04-25 02:52 41.41114 -95.38861 9350 ft 270 kts 242°
2026-04-25 02:52 41.40233 -95.41079 8993 ft 270 kts 242°
2026-04-25 02:52 41.39351 -95.43297 8636 ft 270 kts 242°
2026-04-25 02:52 41.38471 -95.45509 8277 ft 270 kts 242°
2026-04-25 02:53 41.37591 -95.47717 7924 ft 270 kts 241°
2026-04-25 02:53 41.36710 -95.49929 7563 ft 270 kts 241°
2026-04-25 02:53 41.35829 -95.52137 7207 ft 270 kts 241°
2026-04-25 02:53 41.34948 -95.54345 6857 ft 270 kts 241°
2026-04-25 02:54 41.34067 -95.56550 6496 ft 269 kts 241°
2026-04-25 02:54 41.33199 -95.58719 6134 ft 269 kts 241°
2026-04-25 02:54 41.32318 -95.60923 5774 ft 270 kts 241°
2026-04-25 02:54 41.31449 -95.63095 5411 ft 259 kts 241°
2026-04-25 02:55 41.30629 -95.65143 5148 ft 239 kts 241°
2026-04-25 02:55 41.29786 -95.66986 4864 ft 230 kts 232°
2026-04-25 02:55 41.28815 -95.68648 4626 ft 221 kts 231°
2026-04-25 02:55 41.27938 -95.70191 4337 ft 192 kts 231°
2026-04-25 02:56 41.27157 -95.71569 4138 ft 184 kts 230°
2026-04-25 02:56 41.26379 -95.72923 3898 ft 183 kts 229°
2026-04-25 02:56 41.25655 -95.74223 3671 ft 172 kts 229°
2026-04-25 02:56 41.24950 -95.75494 3466 ft 171 kts 229°
2026-04-25 02:57 41.24241 -95.76767 3242 ft 170 kts 229°
2026-04-25 02:57 41.23666 -95.78126 3010 ft 172 kts 244°
2026-04-25 02:57 41.23400 -95.79728 2793 ft 177 kts 262°
2026-04-25 02:57 41.23490 -95.81362 2561 ft 180 kts 279°
2026-04-25 02:58 41.23931 -95.82894 2336 ft 181 kts 297°
2026-04-25 02:58 41.24692 -95.84199 2094 ft 176 kts 316°
2026-04-25 02:58 41.25649 -95.85187 1853 ft 168 kts 326°
2026-04-25 02:58 41.26545 -95.86016 1719 ft 148 kts 325°
2026-04-25 02:59 41.27361 -95.86794 1478 ft 143 kts 326°
2026-04-25 02:59 41.28167 -95.87559 1279 ft 141 kts 326°
2026-04-25 02:59 41.28959 -95.88301 1088 ft 137 kts 326°
2026-04-25 02:59 41.29693 -95.89002 988 ft 121 kts 326°
2026-04-25 03:00 41.30263 -95.89546 983 ft 67 kts 324°
2026-04-25 03:00 41.30496 -95.89762 987 ft 8 kts 344°
2026-04-25 03:00 41.30460 -95.89713 986 ft 23 kts 156°
2026-04-25 03:00 41.30321 -95.89599 981 ft 23 kts 145°
2026-04-25 03:01 41.30179 -95.89460 982 ft 30 kts 143°
2026-04-25 03:01 41.30061 -95.89343 981 ft 34 kts 143°
2026-04-25 03:01 41.29869 -95.89159 982 ft 28 kts 144°
2026-04-25 03:01 41.29794 -95.89027 984 ft 15 kts 75°
2026-04-25 03:02 41.29835 -95.88946 982 ft 7 kts 53°
2026-04-25 03:02 41.29897 -95.88831 990 ft 11 kts 55°
2026-04-25 03:02 41.29940 -95.88753 990 ft 19 kts 54°
2026-04-25 03:02 41.30019 -95.88602 987 ft 19 kts 55°
2026-04-25 03:03 41.30120 -95.88602 990 ft 20 kts 323°
2026-04-25 03:03 41.30217 -95.88695 992 ft 18 kts 324°
2026-04-25 03:03 41.30322 -95.88778 988 ft 14 kts
2026-04-25 03:03 41.30386 -95.88642 990 ft 19 kts 58°
2026-04-25 03:04 41.30430 -95.88573 984 ft 12 kts 136°
2026-04-25 03:04 41.30411 -95.88581 984 ft 0 kts 253°